Location: Quedlinburg
(51.7921°N, 11.1414°E)
Time: 17:12:51
(UTC+01:00)

CUBEBUG 2 - Visible Passes

Search period start: 14 March 2026 00:00
Search period end: 24 March 2026 00:00
Orbit: 548 x 629 km, 97.9° (Epoch: 14 March)

Date Brightness Start Highest point End Pass type
(mag) Time Alt. Az. Time Alt. Az. Time Alt. Az.
14 Mar ? 02:47:32 10° NNE 02:49:27 26° NNE 02:49:27 26° NNE visible
14 Mar ? 04:24:13 10° NNW 04:25:58 15° NW 04:25:58 15° NW visible
15 Mar ? 02:55:05 10° NNE 02:57:13 29° NNE 02:57:13 29° NNE visible
15 Mar ? 04:32:02 10° NNW 04:33:44 14° NW 04:33:44 14° NW visible
16 Mar ? 01:28:21 10° NE 01:28:27 10° NE 01:28:27 10° NE visible
16 Mar ? 03:02:38 10° N 03:04:58 31° N 03:04:58 31° N visible
16 Mar ? 04:39:56 10° NNW 04:41:29 12° NW 04:41:29 12° NW visible
17 Mar ? 01:35:35 10° NE 01:36:12 12° NE 01:36:12 12° NE visible
17 Mar ? 03:10:11 10° N 03:12:42 33° N 03:12:42 33° N visible
17 Mar ? 04:48:03 10° NW 04:49:07 11° NW 04:49:13 11° NW visible
18 Mar ? 01:42:52 10° NE 01:43:56 15° NE 01:43:56 15° NE visible
18 Mar ? 03:17:44 10° N 03:20:26 35° NNW 03:20:26 35° NNW visible
19 Mar ? 01:50:10 10° NE 01:51:38 17° NE 01:51:38 17° NE visible
19 Mar ? 03:25:17 10° N 03:28:09 35° NNW 03:28:09 35° NNW visible
20 Mar ? 01:57:31 10° NE 01:59:21 20° NE 01:59:21 20° NE visible
20 Mar ? 03:32:49 10° N 03:35:51 34° NW 03:35:51 34° NW visible
21 Mar ? 02:04:53 10° NNE 02:07:01 24° NE 02:07:01 24° NE visible
21 Mar ? 03:40:23 10° N 03:43:33 31° NW 03:43:33 31° NW visible
22 Mar ? 02:12:15 10° NNE 02:14:42 28° NE 02:14:42 28° NE visible
22 Mar ? 03:47:56 10° N 03:51:13 29° NW 03:51:13 29° NW visible
23 Mar ? 02:19:38 10° NNE 02:22:22 32° NE 02:22:22 32° NE visible
23 Mar ? 03:55:29 10° N 03:58:53 26° WNW 03:58:53 26° WNW visible
